Regional Weather Roundup
Issued by NWS

Home | Current Version | Previous Version | Graphics & Text | Print | Product List | Glossary On
Versions: 1 2 3 4 5 6 7 8 9 10 11 12 13 14 15 16 17 18 19 20 21 22 23 24 25 26 27 28 29 30 31 32 33 34 35 36 37 38 39 40 41 42 43 44 45 46 47 48 49 50
000
ASUS44 KMEG 311200
RWRTN
TENNESSEE HOURLY STATE WEATHER ROUNDUP
NATIONAL WEATHER SERVICE MEMPHIS TN
700 AM CDT TUE MAY 31 2016

TNZ002-004-019-021-049-052-054-088>092-311300-
WEST TENNESSEE

CITY           SKY/WX    TMP DP  RH WIND       PRES   REMARKS
MEMPHIS INTL   RAIN      70  67  90 CALM      29.99F FOG
NWS MEMPHIS      N/A     69 N/A N/A MISG        N/A
JACKSON        CLOUDY    69  66  90 CALM      29.96S
DYERSBURG      CLOUDY    70  68  94 CALM      29.96S
UNION CITY     SUNNY     70  70 100 CALM      29.95S
PARIS          SUNNY     68  61  77 CALM      29.98R
LEXINGTON      SUNNY     66  64  94 CALM      29.97R
$$

TNZ008-025-027-028-033-062-065-066-311300-
NORTH MIDDLE TENNESSEE

CITY           SKY/WX    TMP DP  RH WIND       PRES   REMARKS
NASHVILLE      CLOUDY    68  63  84 CALM      29.99R
CLARKSVILLE    MOSUNNY   69  65  86 CALM      29.98R
COOKEVILLE     SUNNY     64  63  94 CALM      30.00R
CROSSVILLE     CLOUDY    64  60  87 CALM      30.04R
$$

TNZ061-075-076-078-094-096-097-311300-
SOUTH MIDDLE TENNESSEE

CITY           SKY/WX    TMP DP  RH WIND       PRES   REMARKS
TULLAHOMA      SUNNY     66  64  94 CALM      30.00S
WINCHESTER     SUNNY     63  61  94 CALM      29.99S
MCMINNVILLE    SUNNY     64  64 100 CALM      30.00S
COLUMBIA       SUNNY    N/A N/A N/A CALM      29.97S
SHELBYVILLE    SUNNY     66  63  88 CALM      30.00R
$$

TNZ017-018-042-046-047-311300-
NORTHEAST TENNESSEE

CITY           SKY/WX    TMP DP  RH WIND       PRES   REMARKS
TRI CITIES     FOG       62  61  96 E3        30.04R VSB 1/8
$$

TNZ012-013-036-069-073-074-311300-
CENTRAL EAST TENNESSEE

CITY           SKY/WX    TMP DP  RH WIND       PRES   REMARKS
KNOXVILLE      NOT AVBL
OAK RIDGE      CLOUDY    68  64  87 CALM      30.01R
GATLINBURG     SUNNY     63  59  88 CALM      30.00R
$$

TNZ083-085-099-311300-
SOUTHEAST TENNESSEE

CITY           SKY/WX    TMP DP  RH WIND       PRES   REMARKS
CHATTANOOGA    PTSUNNY   67  63  87 CALM      29.99R
$$

SKY/WX REPORTED AS FAIR MEANS FEW OR NO CLOUDS BELOW
12 THOUSAND FEET.





USA.gov is the U.S. government's official web portal to all federal, state and local government web resources and services.